Location: Grasslands National Park East Block
(49.0708°N, 106.5295°W)
Time: 19:44:55
(UTC-06:00)

Explorer 7 - All Passes

Search period start: 23 October 2019 00:00
Search period end: 02 November 2019 00:00
Orbit: 485 x 680 km, 50.3° (Epoch: 22 October)

Date Brightness Start Highest point End Pass type
(mag) Time Alt. Az. Time Alt. Az. Time Alt. Az.
23 Oct - 10:39:53 10° S 10:42:35 19° SE 10:45:17 10° E daylight
23 Oct - 12:18:52 10° WSW 12:22:35 69° SSE 12:26:21 10° ENE daylight
23 Oct - 13:59:22 10° W 14:03:07 72° N 14:06:57 10° E daylight
23 Oct - 15:39:53 10° WNW 15:43:40 72° SSW 15:47:35 10° ESE daylight
23 Oct - 17:20:44 10° W 17:23:45 22° SW 17:26:52 10° SSE daylight
24 Oct - 10:44:08 10° SSW 10:47:24 28° SE 10:50:38 10° E daylight
24 Oct - 12:23:49 10° WSW 12:27:34 87° SSE 12:31:22 10° ENE daylight
24 Oct - 14:04:24 10° W 14:08:10 74° N 14:12:00 10° E daylight
24 Oct - 15:44:54 10° WNW 15:48:36 54° SSW 15:52:28 10° SE daylight
24 Oct - 17:26:22 10° WSW 17:28:32 14° SW 17:30:45 10° S daylight
25 Oct - 10:48:42 10° SW 10:52:15 40° SSE 10:55:47 10° E daylight
25 Oct - 12:28:50 10° W 12:32:35 80° N 12:36:23 10° ENE daylight
25 Oct - 14:09:25 10° WNW 14:13:11 82° N 14:17:03 10° E daylight
25 Oct - 15:49:57 10° W 15:53:31 39° SSW 15:57:11 10° SE daylight
26 Oct - 09:15:07 10° S 09:17:16 15° SE 09:19:24 10° ESE daylight
26 Oct - 10:53:27 10° SW 10:57:10 56° SSE 11:00:51 10° ENE daylight
26 Oct - 12:33:52 10° W 12:37:37 73° N 12:41:24 10° E daylight
26 Oct - 14:14:26 10° WNW 14:18:12 84° SSW 14:22:03 10° ESE daylight
26 Oct - 15:55:08 10° W 15:58:23 27° SW 16:01:43 10° SSE daylight
27 Oct - 09:19:02 10° SSW 09:22:02 22° SE 09:25:00 10° E daylight
27 Oct - 10:58:20 10° WSW 11:02:07 75° SSE 11:05:52 10° ENE daylight
27 Oct - 12:38:55 10° W 12:42:40 72° N 12:46:27 10° E daylight
27 Oct - 14:19:27 10° WNW 14:23:10 66° SSW 14:26:59 10° ESE daylight
27 Oct - 16:00:30 10° W 16:03:10 18° SW 16:05:56 10° S daylight
28 Oct - 09:23:25 10° SSW 09:26:52 32° SSE 09:30:15 10° E daylight
28 Oct - 11:03:18 10° WSW 11:07:07 88° N 11:10:53 10° ENE daylight
28 Oct - 12:43:56 10° W 12:47:42 76° N 12:51:29 10° E daylight
28 Oct - 14:24:29 10° W 14:28:07 48° SSW 14:31:49 10° SE daylight
28 Oct - 16:06:25 10° WSW 16:07:56 12° SW 16:09:28 10° SSW daylight
29 Oct - 07:50:49 10° SSE 07:51:57 11° SE 07:53:04 10° ESE daylight
29 Oct - 09:28:02 10° SW 09:31:45 45° SSE 09:35:21 10° E daylight
29 Oct - 11:08:20 10° W 11:12:08 77° N 11:15:53 10° E daylight
29 Oct - 12:48:57 10° WNW 12:52:43 86° N 12:56:31 10° ESE daylight
29 Oct - 14:29:34 10° W 14:32:59 34° SSW 14:36:29 10° SE daylight
30 Oct - 07:54:04 10° S 07:56:41 17° SE 07:59:15 10° E daylight
30 Oct - 09:32:50 10° WSW 09:36:40 62° SSE 09:40:24 10° ENE daylight
30 Oct - 11:13:22 10° W 11:17:10 72° N 11:20:55 10° E daylight
30 Oct - 12:53:58 10° WNW 12:57:43 78° SSW 13:01:30 10° ESE daylight
30 Oct - 14:34:47 10° W 14:37:50 23° SW 14:40:54 10° SSE daylight
31 Oct - 07:58:12 10° SSW 08:01:29 25° SE 08:04:40 10° E daylight
31 Oct - 09:37:45 10° WSW 09:41:38 81° SSE 09:45:24 10° ENE daylight
31 Oct - 11:18:24 10° W 11:22:12 72° N 11:25:57 10° E daylight
31 Oct - 12:58:58 10° WNW 13:02:41 60° SSW 13:06:24 10° ESE daylight
31 Oct - 14:40:16 10° W 14:42:36 16° SW 14:44:57 10° S daylight
01 Nov - 08:02:40 10° SW 08:06:19 36° SSE 08:09:51 10° E daylight
01 Nov - 09:42:45 10° W 09:46:38 84° N 09:50:24 10° ENE daylight
01 Nov - 11:23:26 10° WNW 11:27:14 78° N 11:30:59 10° E daylight
01 Nov - 13:04:01 10° W 13:07:35 43° SSW 13:11:11 10° SE daylight
